Temperature
12 12 11 11 11 11 11 11 11 11 11 11 12 12 12 12 12 13 13 13 13 14 14 14 14 14 14 15 15 15 15 15 15 16 16 16 16 16 16 15 15 15 15
12 12 11 11 11 11 11 11 11 11 11 11 11 11 12 12 12 13 13 13 13 13 13 14 14 14 14 14 14 14 15 15 15 15 15 15 15 15 15 15 15 15 14
12 12 11 11 11 11 11 11 11 11 11 11 11 11 12 12 12 12 12 13 13 13 13 13 14 14 14 14 14 14 14 15 15 15 15 15 15 15 14 14 14 14 14
12 11 11 11 11 11 11 11 11 11 11 11 11 11 11 12 12 12 12 12 12 13 13 13 13 14 14 14 14 14 14 14 14 14 14 14 14 14 14 14 14 13 13
12 12 11 11 11 11 11 11 11 11 11 11 11 11 11 11 12 12 12 12 12 12 13 13 13 13 13 14 14 14 14 14 14 14 14 14 14 13 13 14 13 13 13
12 12 11 11 11 11 11 11 11 11 11 11 11 11 11 11 11 12 12 12 12 12 12 13 13 13 13 13 13 14 14 14 14 14 14 14 13 13 13 13 13 13 12
12 12 11 11 11 11 11 11 11 11 11 11 11 11 11 11 11 12 12 12 12 12 12 13 13 13 13 13 13 13 13 13 14 14 14 14 14 14 13 13 13 13 12
12 12 11 11 11 11 11 11 11 11 11 11 11 11 11 11 11 12 12 12 12 12 12 12 13 13 13 13 13 13 13 13 13 13 13 14 13 13 13 13 13 12 12
12 12 11 11 11 11 11 11 11 11 11 11 11 11 11 11 11 11 12 12 12 12 12 12 12 12 13 13 13 13 13 13 13 13 13 13 13 13 13 12 12 12 11
12 12 11 11 11 11 11 11 11 11 11 11 11 11 11 11 11 11 12 12 12 12 12 12 12 12 12 13 13 13 13 13 13 13 13 12 12 12 12 12 12 12 12
12 12 12 11 11 11 11 11 11 11 11 11 11 11 11 11 11 11 11 12 12 12 12 12 12 12 12 12 13 13 13 13 13 12 12 12 12 12 12 12 12 12 12
12 12 12 11 11 11 11 11 11 11 11 11 11 11 11 11 11 11 11 11 11 11 12 12 12 12 12 12 12 12 12 12 12 12 12 12 12 11 11 11 11 11 11
13 12 12 12 11 11 11 11 11 11 11 11 11 11 11 11 11 11 11 11 11 11 11 11 11 12 12 12 12 12 12 12 12 12 12 12 11 11 11 11 11 11 11
13 13 12 12 12 11 11 11 11 11 11 11 11 11 11 11 11 11 11 11 11 11 11 11 11 11 11 11 11 11 11 11 11 11 11 11 11 11 11 11 11 10 10
13 13 13 12 12 12 11 11 11 11 11 10 10 11 11 11 11 11 11 11 11 11 11 11 11 11 11 11 11 11 11 11 11 11 11 11 11 11 11 10 10 10 10
14 13 13 12 12 12 12 11 11 11 11 11 11 11 11 11 11 11 11 11 11 11 11 11 11 11 11 11 10 10 10 10 11 11 10 10 10 10 10 10 10 10 10
14 14 13 13 12 12 12 11 11 11 11 11 11 11 11 11 11 11 11 11 11 11 11 11 11 11 11 10 10 10 10 10 10 10 10 10 10 10 10 10 10 10 10
14 14 13 13 13 12 12 12 11 11 11 11 11 11 11 11 11 11 11 11 11 11 11 11 10 10 10 10 10 10 10 10 10 10 10 10 10 10 10 10 9 9 9
15 14 14 13 13 13 12 12 12 11 11 11 11 11 11 11 11 11 11 11 11 11 11 10 10 10 10 10 10 10 10 10 10 10 10 10 10 10 9 9 9 9 9
15 15 14 14 13 13 12 12 12 12 11 11 11 11 11 11 11 11 11 11 10 10 10 10 10 10 10 10 10 10 10 10 10 10 10 10 9 9 9 9 9 9 8
15 15 14 14 13 13 13 12 12 12 12 12 12 11 11 11 11 11 11 11 11 10 10 10 10 10 10 10 10 10 10 10 10 10 10 9 9 9 9 9 8 8 8
15 15 15 14 14 13 13 13 12 12 12 12 12 11 11 11 11 11 11 11 11 10 10 10 10 10 10 10 10 10 10 10 10 10 10 9 9 9 9 8 8 8 8
15 15 15 14 14 14 13 13 13 12 12 12 12 12 11 11 11 11 11 11 11 11 10 10 10 10 10 10 10 10 10 10 10 10 10 9 9 9 9 8 8 8 8
15 15 15 14 14 14 13 13 13 13 12 12 12 12 12 12 11 11 11 11 11 11 11 10 10 10 10 10 10 10 10 10 10 10 10 9 9 9 9 8 8 8 8
15 15 14 14 14 14 13 13 13 13 12 12 12 12 12 12 12 12 11 11 11 11 11 11 11 11 11 10 10 10 10 10 10 10 9 9 9 9 9 8 8 8 8
14 14 14 14 14 14 13 13 13 13 12 12 12 12 12 12 12 12 12 11 11 11 11 11 11 11 11 11 10 10 10 10 10 10 9 9 9 9 9 8 8 8 8
Wind_Speed
8 7 8 8 8 7 7 8 7 7 7 7 6 5 5 4 3 2 2 3 4 4 5 7 7 7 7 7 6 6 5 4 4 3 2 3 4 6 7 9 10 11 11
7 7 7 8 8 8 8 8 8 8 7 7 6 5 5 4 3 2 1 2 3 4 5 6 7 7 8 7 7 8 6 5 5 5 3 3 3 6 7 8 8 10 10
6 7 8 8 8 8 8 8 8 8 8 7 6 6 5 5 4 3 1 1 2 3 4 5 5 7 8 7 8 8 7 6 5 6 4 3 3 5 7 7 8 7 10
6 6 7 8 8 8 8 8 8 8 8 8 8 7 6 5 4 3 2 1 1 1 2 3 5 6 6 7 8 8 8 7 7 7 6 4 4 5 7 7 7 6 6
5 6 7 7 7 7 8 8 8 8 8 8 8 8 7 6 4 4 3 2 1 1 1 1 3 5 7 7 7 8 9 8 8 7 7 5 5 6 7 6 8 7 6
5 6 6 7 7 8 8 8 8 9 9 9 9 9 9 7 9 8 4 3 2 2 2 2 2 3 5 6 8 10 11 10 9 8 6 8 7 7 7 8 9 7 4
5 5 6 6 7 7 8 8 8 8 8 9 9 9 9 10 12 11 8 4 4 3 3 2 2 2 3 4 6 8 9 10 10 8 9 8 9 9 10 10 8 6 5
4 5 6 6 6 7 7 8 7 6 7 7 8 9 9 11 15 13 9 6 5 5 4 3 3 2 3 5 6 6 6 6 7 6 7 7 8 9 10 9 10 9 8
4 5 5 5 5 6 7 7 5 5 6 7 7 9 10 11 15 13 10 5 5 6 5 4 4 3 4 6 7 7 7 5 6 9 9 10 14 15 14 11 11 10 6
4 4 4 4 4 5 5 5 4 4 5 5 7 8 9 10 14 14 11 5 5 5 5 5 5 5 5 6 6 7 7 5 6 8 9 10 11 13 14 11 11 10 6
4 3 3 3 3 3 4 4 4 4 5 6 7 7 8 10 13 15 13 6 5 5 5 5 4 6 7 7 7 6 8 8 7 8 8 7 7 6 6 6 6 7 7
2 2 2 3 3 2 3 4 4 4 5 6 6 7 7 8 10 12 14 11 8 6 5 5 5 9 9 9 7 10 12 10 7 7 7 7 6 6 6 7 9 8 6
2 2 2 2 2 2 2 3 3 4 4 4 4 5 6 6 8 12 13 12 11 6 5 8 10 12 11 9 10 11 9 7 7 7 7 5 4 6 7 7 9 11 12
4 3 2 2 2 1 1 1 1 2 2 3 3 4 5 5 6 6 6 6 7 6 5 7 11 12 10 10 9 7 6 6 7 7 6 5 5 5 6 5 6 6 6
5 4 3 3 2 2 1 2 2 2 2 1 2 2 2 4 5 7 4 4 3 3 3 4 5 5 6 6 6 6 6 6 6 5 6 6 6 6 5 4 4 4 4
6 5 4 4 3 3 2 3 4 4 4 4 4 3 3 4 6 6 6 5 5 4 5 4 4 4 4 4 4 5 5 5 5 5 6 6 6 6 5 4 3 4 5
8 7 5 5 4 4 3 3 3 4 4 4 4 4 4 4 4 3 4 5 5 5 4 3 2 2 3 3 3 3 3 3 3 4 5 5 5 5 5 5 5 4 4
9 9 7 6 6 5 5 5 4 3 3 4 4 5 5 4 3 1 1 3 3 3 2 1 1 1 2 2 2 2 3 3 3 4 4 4 5 5 5 5 5 5 5
9 7 7 6 6 6 5 5 5 5 5 4 3 3 4 3 2 1 1 1 1 1 1 1 1 2 2 2 2 3 3 3 3 4 4 4 4 4 4 4 5 6 5
9 13 10 7 6 6 6 6 6 6 5 5 5 5 2 2 2 2 2 2 3 3 3 3 2 3 3 3 3 3 3 3 4 3 4 4 4 4 5 6 6 5 4
8 9 13 8 7 7 7 7 7 7 6 6 7 6 7 5 5 5 4 4 5 5 4 4 4 4 4 3 4 4 5 4 4 4 4 4 4 4 4 5 5 5 4
8 8 8 9 8 8 8 8 7 7 8 8 7 6 10 6 6 6 6 6 6 6 5 5 5 5 5 5 5 5 5 5 5 5 5 5 5 4 4 4 5 4 5
8 9 9 9 9 10 9 8 8 8 8 8 7 6 6 7 7 7 7 7 6 6 5 5 5 5 5 7 7 6 7 7 7 7 7 6 5 5 5 5 6 5 5
8 10 10 9 9 9 9 9 9 9 9 9 8 8 8 8 8 9 8 7 7 6 6 6 7 8 9 8 9 11 11 11 11 10 9 8 7 6 5 5 6 6 6
8 9 10 10 10 10 10 10 9 9 9 9 9 8 8 8 8 8 8 7 8 8 9 8 8 9 11 12 12 13 14 15 14 13 11 7 8 7 7 6 5 5 5
7 8 9 9 9 10 10 10 10 10 10 9 9 9 9 9 9 9 8 8 8 8 8 8 10 12 13 14 16 17 17 17 17 16 13 8 8 7 7 6 7 6 6
Wind_Direction
338 335 339 340 339 341 344 340 336 336 340 341 336 335 335 331 322 298 261 235 216 214 205 200 202 192 192 188 180 178 174 160 161 159 144 138 150 153 145 148 151 149 153
333 335 339 340 342 346 345 342 342 341 341 341 340 341 338 335 332 330 293 257 226 214 203 197 201 195 195 187 186 186 180 168 156 158 156 147 143 155 147 142 137 138 138
337 342 345 346 347 345 342 343 345 346 347 349 352 350 342 341 342 341 322 280 243 222 206 195 195 190 194 187 185 184 179 168 149 150 151 140 129 140 138 130 125 121 126
341 347 348 344 342 342 344 347 350 352 355 356 357 353 348 345 345 344 338 328 297 231 205 193 189 189 191 184 184 180 170 162 153 149 145 142 137 136 139 136 128 120 120
344 347 343 338 342 349 355 356 356 359 3 360 3 3 359 356 0 4 358 27 45 84 109 153 170 176 184 185 183 174 168 166 163 161 156 151 151 151 153 143 135 124 101
342 340 338 345 351 354 355 357 1 4 3 6 8 5 6 8 9 16 24 33 45 64 82 87 114 142 162 168 167 168 167 168 169 166 163 163 160 153 146 146 141 139 133
338 338 343 349 354 353 357 5 7 4 5 9 8 8 8 7 17 27 41 48 51 56 68 76 98 114 134 140 141 148 155 158 160 161 162 165 163 162 155 154 152 142 132
334 335 341 350 351 353 1 3 359 0 4 8 8 8 8 11 20 31 43 47 48 52 57 67 83 93 124 132 129 128 131 140 146 146 151 155 155 155 154 149 138 119 106
323 325 332 342 347 355 359 354 353 1 8 8 7 10 12 9 19 30 39 45 49 45 44 50 63 78 102 122 126 129 124 122 118 120 123 133 140 142 140 133 135 136 132
293 305 320 336 346 351 349 349 350 360 4 7 15 13 13 12 19 29 36 42 46 41 37 38 51 74 90 115 126 130 130 129 129 125 118 120 129 139 143 148 152 150 138
275 300 324 336 338 346 352 357 359 9 15 16 17 12 13 12 16 27 33 36 37 43 39 30 37 70 88 104 111 119 126 123 120 119 118 117 118 122 123 118 130 148 144
258 288 312 330 342 5 12 10 13 19 24 15 13 10 7 7 12 20 30 38 38 49 43 33 47 68 78 90 102 114 115 111 111 112 115 116 117 114 112 105 100 90 87
228 256 283 312 338 4 17 11 11 15 22 13 15 10 357 359 6 17 24 31 36 47 48 55 60 64 68 76 89 101 105 107 111 112 114 109 104 113 112 103 93 90 82
221 238 250 264 292 328 358 359 6 357 3 4 6 360 351 354 1 2 5 15 27 39 43 52 61 61 60 61 70 75 78 97 109 111 111 106 104 108 111 110 113 110 96
221 229 235 231 236 257 266 253 252 246 229 256 280 297 332 340 331 345 4 11 15 32 49 48 48 53 57 55 58 65 72 85 94 101 112 114 113 111 103 99 108 102 107
216 226 224 221 223 227 251 285 262 247 265 251 235 240 266 282 315 350 11 24 36 57 70 66 60 65 72 75 78 70 67 82 94 107 113 119 125 124 116 102 99 113 120
212 218 214 213 215 218 222 237 275 293 278 265 259 259 265 299 327 355 20 36 43 64 73 76 80 84 86 91 97 99 94 90 99 111 119 125 127 124 123 124 119 116 119
213 219 213 213 213 213 215 218 222 240 273 285 280 266 267 278 299 323 30 64 43 46 80 114 126 130 125 123 121 117 116 115 112 119 125 130 133 132 132 137 139 139 139
211 216 214 211 210 212 213 213 217 224 235 251 272 284 264 253 260 271 138 127 183 207 197 188 181 169 163 157 149 141 139 141 142 140 143 145 145 140 144 149 149 150 144
217 220 210 208 209 210 211 213 218 222 229 235 243 245 228 185 219 237 215 206 207 215 211 207 203 190 179 172 166 159 153 155 157 156 161 161 159 156 160 164 165 166 173
217 221 215 208 210 212 213 216 219 219 224 231 239 231 200 202 220 223 220 220 219 219 214 208 204 196 189 180 175 176 176 178 177 174 172 172 167 166 168 169 174 174 166
218 216 210 211 213 214 216 217 215 219 224 231 240 239 217 210 219 222 224 227 225 220 212 202 204 203 197 192 188 185 187 189 189 184 181 178 175 173 166 168 170 172 173
222 219 216 216 214 217 218 217 216 219 224 227 229 227 215 215 222 224 227 227 220 216 209 203 206 210 209 206 200 192 194 200 197 186 181 179 179 178 174 177 176 174 185
229 225 222 220 216 215 217 221 221 221 223 226 226 225 223 221 222 225 225 222 216 214 207 204 208 212 209 207 208 209 212 211 200 193 185 182 183 182 179 181 185 189 191
239 233 228 224 221 220 221 222 222 223 224 225 225 225 224 222 224 227 224 218 214 214 212 207 210 213 214 211 209 211 216 213 206 198 190 184 185 185 183 186 187 188 190
252 242 237 231 226 223 222 222 223 223 224 225 224 223 222 222 223 224 220 215 214 216 215 211 212 212 214 215 217 217 216 213 209 202 191 185 186 191 188 193 194 192 192
Height
1514 1510 1506 1503 1499 1495 1492 1488 1484 1481 1478 1475 1473 1471 1469 1468 1468 1467 1467 1468 1470 1471 1473 1476 1478 1482 1485 1489 1493 1497 1502 1506 1509 1512 1516 1519 1523 1526 1530 1533 1536 1539 1542
1514 1510 1507 1503 1499 1496 1492 1488 1485 1482 1478 1476 1473 1471 1469 1467 1466 1465 1465 1466 1467 1468 1470 1472 1475 1478 1481 1484 1488 1492 1496 1500 1504 1508 1511 1515 1519 1523 1526 1529 1532 1536 1538
1514 1511 1507 1504 1500 1496 1493 1489 1486 1482 1479 1476 1473 1470 1468 1466 1465 1464 1464 1464 1464 1465 1467 1469 1471 1474 1477 1480 1484 1488 1492 1496 1500 1504 1507 1511 1515 1519 1522 1525 1529 1532 1535
1514 1511 1508 1504 1501 1497 1494 1490 1487 1483 1480 1477 1474 1471 1468 1466 1464 1463 1462 1462 1463 1464 1465 1467 1469 1471 1474 1477 1480 1484 1488 1492 1496 1500 1504 1507 1511 1515 1519 1521 1525 1529 1532
1515 1512 1508 1505 1502 1499 1495 1492 1489 1485 1482 1479 1475 1472 1469 1467 1465 1463 1462 1461 1462 1463 1464 1465 1467 1470 1472 1475 1477 1480 1484 1488 1492 1496 1500 1504 1507 1511 1515 1518 1522 1526 1529
1515 1512 1509 1507 1503 1500 1497 1494 1490 1487 1484 1481 1477 1474 1471 1468 1466 1464 1462 1461 1462 1462 1463 1464 1466 1469 1471 1473 1476 1478 1482 1485 1489 1492 1496 1499 1503 1508 1512 1515 1519 1522 1526
1516 1513 1510 1508 1505 1502 1498 1495 1492 1489 1486 1483 1480 1477 1473 1470 1467 1465 1464 1463 1463 1463 1464 1465 1466 1468 1470 1472 1474 1477 1480 1483 1487 1490 1493 1496 1500 1504 1508 1512 1516 1520 1522
1516 1514 1511 1509 1506 1503 1500 1497 1494 1492 1489 1486 1483 1479 1476 1473 1470 1467 1466 1465 1465 1465 1465 1466 1467 1468 1470 1472 1474 1476 1479 1482 1485 1489 1492 1495 1499 1502 1506 1510 1513 1517 1521
1516 1514 1512 1510 1507 1504 1502 1499 1496 1494 1491 1488 1485 1482 1479 1476 1473 1471 1469 1468 1467 1467 1467 1468 1468 1469 1470 1472 1474 1476 1479 1482 1485 1488 1491 1494 1498 1501 1505 1508 1512 1515 1519
1517 1515 1513 1510 1508 1506 1503 1501 1498 1496 1493 1491 1488 1485 1482 1479 1477 1475 1473 1472 1470 1469 1469 1469 1470 1470 1471 1473 1474 1476 1479 1482 1484 1488 1490 1494 1497 1501 1504 1508 1511 1514 1517
1517 1515 1513 1511 1509 1507 1504 1502 1500 1498 1496 1493 1491 1488 1485 1483 1481 1479 1477 1475 1474 1473 1472 1472 1472 1472 1473 1474 1476 1477 1479 1482 1484 1487 1491 1494 1497 1501 1504 1508 1511 1514 1517
1516 1515 1513 1511 1509 1508 1506 1503 1501 1499 1497 1495 1493 1491 1489 1486 1484 1482 1481 1479 1478 1477 1476 1475 1475 1474 1475 1476 1477 1479 1481 1483 1486 1488 1491 1494 1498 1501 1504 1507 1510 1514 1517
1515 1514 1513 1511 1510 1508 1506 1504 1502 1501 1499 1497 1495 1493 1491 1489 1487 1486 1484 1482 1481 1480 1479 1479 1478 1478 1478 1478 1479 1481 1483 1485 1487 1489 1492 1495 1499 1501 1505 1508 1511 1514 1516
1514 1513 1512 1511 1509 1508 1507 1505 1503 1502 1500 1498 1497 1495 1493 1492 1490 1488 1487 1486 1485 1484 1483 1482 1482 1481 1481 1481 1482 1484 1485 1487 1489 1492 1494 1497 1500 1503 1506 1509 1511 1514 1516
1512 1512 1511 1510 1509 1508 1506 1505 1504 1502 1501 1500 1498 1497 1495 1494 1492 1491 1490 1488 1488 1487 1486 1486 1485 1485 1485 1485 1485 1486 1488 1490 1492 1494 1496 1499 1501 1504 1507 1509 1512 1514 1516
1510 1510 1509 1508 1507 1506 1505 1505 1504 1502 1501 1500 1499 1498 1496 1495 1494 1493 1492 1491 1490 1490 1489 1489 1488 1488 1488 1489 1489 1490 1491 1493 1495 1496 1498 1500 1503 1505 1507 1510 1512 1515 1516
1507 1507 1506 1506 1505 1505 1504 1503 1502 1502 1501 1500 1499 1498 1497 1496 1494 1494 1493 1492 1492 1491 1491 1491 1491 1491 1491 1492 1492 1493 1494 1495 1497 1499 1500 1502 1504 1506 1508 1510 1512 1514 1516
1503 1503 1503 1503 1502 1502 1501 1501 1500 1500 1499 1499 1498 1497 1496 1495 1494 1494 1493 1493 1492 1492 1492 1492 1492 1493 1493 1494 1494 1495 1496 1497 1498 1500 1502 1503 1505 1507 1508 1510 1512 1514 1515
1499 1499 1499 1499 1499 1498 1498 1498 1497 1497 1497 1496 1496 1496 1495 1494 1494 1493 1493 1492 1492 1492 1492 1492 1492 1493 1493 1494 1495 1496 1497 1498 1499 1500 1502 1503 1505 1507 1508 1510 1511 1513 1514
1493 1493 1494 1494 1494 1494 1494 1494 1494 1493 1493 1493 1493 1493 1493 1492 1492 1492 1491 1491 1491 1491 1491 1491 1491 1492 1492 1493 1494 1495 1496 1497 1498 1500 1501 1503 1504 1506 1507 1508 1510 1511 1513
1487 1488 1488 1488 1488 1488 1488 1489 1489 1489 1489 1489 1489 1490 1490 1489 1489 1489 1489 1489 1489 1489 1489 1489 1490 1490 1491 1492 1492 1493 1494 1496 1497 1498 1499 1501 1502 1504 1505 1507 1508 1509 1511
1481 1481 1481 1481 1482 1482 1483 1483 1483 1484 1484 1484 1485 1486 1486 1485 1486 1486 1486 1486 1486 1486 1486 1487 1487 1488 1489 1489 1490 1491 1492 1493 1494 1496 1497 1498 1500 1501 1503 1504 1505 1507 1508
1473 1473 1474 1474 1475 1476 1476 1477 1477 1477 1478 1479 1479 1480 1480 1480 1481 1481 1482 1482 1482 1483 1483 1483 1484 1484 1485 1486 1487 1488 1489 1490 1491 1492 1494 1495 1496 1498 1499 1501 1502 1503 1504
1465 1465 1466 1466 1467 1468 1469 1469 1470 1471 1471 1472 1473 1474 1474 1475 1475 1476 1477 1477 1478 1478 1479 1479 1480 1480 1481 1482 1483 1484 1485 1486 1487 1488 1490 1491 1493 1494 1495 1497 1498 1499 1501
1457 1457 1457 1458 1459 1460 1461 1462 1462 1463 1464 1465 1466 1467 1468 1469 1469 1470 1471 1472 1472 1473 1474 1474 1475 1476 1477 1478 1479 1480 1481 1482 1483 1484 1486 1487 1488 1490 1491 1492 1494 1495 1496
1449 1449 1449 1450 1450 1451 1452 1453 1454 1455 1456 1457 1458 1459 1461 1462 1463 1464 1465 1466 1466 1467 1468 1469 1470 1470 1471 1472 1474 1475 1476 1477 1478 1480 1481 1482 1484 1485 1486 1487 1489 1490 1491